Location: Croisilles
(50.1998°N, 2.8793°E)
Time: 13:40:39
(UTC+00:00)

Cosmos 1818 - Pass Details

Date: 21 January 2021
Orbit: 773 x 800 km, 65.0° (Epoch: 26 February)

Event Time Altitude Azimuth Distance (km) Brightness Sun altitude
Rises 19:37:12 0° 242° (WSW) 3,278 7.6 -30.5°
Reaches altitude 10° 19:39:44 10° 250° (WSW) 2,356 6.7 -30.9°
Maximum altitude 19:44:53 43° 321° (NW) 1,107 4.5 -31.7°
Enters shadow 19:44:56 43° 323° (NW) 1,107 4.5 -31.7°
